DW9029 Weather Reports


Display with metric or nautical units.
time (UTC)temp
F
wind
direction
speed
MPH
gust
MPH
rain 1hr
in
rain 24hr
in
rain mn
in
humidity
%
barometer
mb
20180122061859 46 354 6.0 10.0 0.00 0.01 0.00 93 1029.2
20180122061359 46 352 5.0 9.0 0.00 0.01 0.00 93 1029.3
20180122060859 46 0 6.0 9.0 0.00 0.01 0.00 93 1029.2
20180122060359 46 3 5.0 9.0 0.00 0.01 0.00 93 1029.2
20180122054859 47 0 5.0 7.0 0.00 0.01 0.00 93 1029.1
20180122054359 47 356 4.0 7.0 0.00 0.01 0.00 93 1029.1
20180122053859 47 351 3.0 7.0 0.00 0.01 0.00 93 1029.1
20180122053359 47 2 5.0 8.0 0.00 0.01 0.00 93 1029.0
20180122051859 46 341 5.0 6.0 0.00 0.01 0.00 93 1029.0
20180122051359 46 345 5.0 6.0 0.00 0.01 0.00 93 1029.0
20180122050858 46 351 3.0 5.0 0.00 0.01 0.00 92 1029.0
20180122050359 46 339 0.0 3.0 0.00 0.01 0.00 92 1029.1
20180122044859 46 9 2.0 3.0 0.00 0.01 0.00 92 1029.0
20180122044359 46 5 2.0 5.0 0.00 0.01 0.00 92 1029.0
20180122043859 47 348 1.0 6.0 0.00 0.01 0.00 92 1028.9
20180122043359 47 348 2.0 7.0 0.00 0.01 0.00 92 1029.0
20180122041858 47 10 1.0 3.0 0.00 0.01 0.00 92 1028.9
20180122041400 47 355 2.0 5.0 0.00 0.01 0.00 92 1028.9
20180122040858 47 14 0.0 5.0 0.00 0.01 0.00 92 1028.9
20180122040359 47 12 0.0 6.0 0.00 0.01 0.00 92 1028.9
20180122034859 47 6 4.0 6.0 0.00 0.01 0.00 92 1029.0
20180122034359 47 4 3.0 5.0 0.00 0.01 0.00 92 1029.1
20180122033859 47 347 2.0 6.0 0.00 0.01 0.00 92 1029.2
20180122033359 47 349 2.0 6.0 0.00 0.01 0.00 92 1029.2
20180122031859 47 347 1.0 5.0 0.00 0.01 0.00 92 1029.2
20180122031358 47 352 3.0 5.0 0.00 0.01 0.00 92 1029.3
20180122030858 47 0 1.0 5.0 0.00 0.01 0.00 92 1029.3
20180122030359 47 354 3.0 7.0 0.00 0.01 0.00 93 1029.3
20180122024859 46 351 1.0 3.0 0.00 0.01 0.00 92 1029.3
20180122024359 46 357 0.0 2.0 0.00 0.01 0.00 92 1029.4
20180122023859 46 6 0.0 0.0 0.00 0.01 0.00 92 1029.4
20180122023359 46 6 2.0 3.0 0.00 0.01 0.00 92 1029.4
20180122021859 47 6 0.0 3.0 0.00 0.01 0.00 92 1029.5
20180122021359 47 338 0.0 0.0 0.00 0.01 0.00 92 1029.5
20180122020859 47 333 0.0 0.0 0.00 0.01 0.00 91 1029.5
20180122020359 47 333 0.0 0.0 0.00 0.01 0.00 91 1029.4
20180122014859 48 333 0.0 0.0 0.00 0.02 0.00 91 1029.3
20180122014359 48 335 0.0 0.0 0.00 0.02 0.00 91 1029.3
20180122013859 48 348 0.0 0.0 0.00 0.02 0.00 90 1029.3
20180122013359 48 348 0.0 5.0 0.00 0.02 0.00 90 1029.3
20180122011859 49 338 0.0 0.0 0.00 0.02 0.00 89 1029.4
20180122011359 50 338 1.0 3.0 0.00 0.02 0.00 89 1029.4
20180122010859 50 342 0.0 1.0 0.00 0.02 0.00 89 1029.5
20180122010359 51 316 0.0 0.0 0.00 0.02 0.00 89 1029.6
20180122004859 51 309 0.0 0.0 0.00 0.02 0.00 89 1029.7
20180122004359 51 309 0.0 0.0 0.00 0.02 0.00 89 1029.7
20180122003859 51 309 0.0 0.0 0.00 0.02 0.00 89 1029.8
20180122003359 51 309 0.0 0.0 0.00 0.02 0.00 89 1029.8
20180122001859 51 300 0.0 0.0 0.00 0.02 0.00 89 1030.1
20180122001359 51 300 0.0 0.0 0.00 0.02 0.00 89 1030.1
20180122000859 51 300 0.0 0.0 0.00 0.02 0.00 89 1030.1
20180122000359 51 300 0.0 0.0 0.00 0.02 0.00 89 1030.1
20180121234859 51 299 0.0 0.0 0.00 0.02 0.00 89 1030.3
20180121234359 51 299 0.0 0.0 0.00 0.02 0.00 89 1030.4
20180121233859 51 299 0.0 0.0 0.00 0.02 0.00 89 1030.4
20180121233359 51 299 0.0 0.0 0.00 0.02 0.00 89 1030.5
20180121231859 51 299 0.0 0.0 0.00 0.02 0.00 90 1030.5
20180121231359 51 299 0.0 0.0 0.00 0.02 0.00 89 1030.5
20180121230858 51 299 0.0 0.0 0.00 0.02 0.00 90 1030.6
20180121230359 51 299 0.0 0.0 0.00 0.02 0.00 90 1030.5
20180121224859 51 299 0.0 0.0 0.00 0.02 0.02 90 1030.6
20180121224359 50 299 0.0 0.0 0.00 0.02 0.02 89 1030.6
20180121223858 51 299 0.0 0.0 0.00 0.02 0.02 89 1030.6
20180121223359 51 299 0.0 0.0 0.00 0.02 0.02 88 1030.6
20180121221859 51 299 0.0 0.0 0.00 0.02 0.02 88 1030.5
20180121221358 51 299 0.0 0.0 0.00 0.02 0.02 88 1030.5
20180121220859 52 299 0.0 0.0 0.00 0.02 0.02 88 1030.5
20180121220358 52 299 0.0 0.0 0.00 0.02 0.02 88 1030.5
20180121214859 52 299 0.0 0.0 0.00 0.02 0.02 88 1030.5
20180121214359 52 299 0.0 0.0 0.00 0.02 0.02 88 1030.5
20180121213859 52 299 0.0 0.0 0.00 0.02 0.02 88 1030.5
20180121213359 52 299 0.0 3.0 0.00 0.02 0.02 88 1030.4
20180121211859 52 244 0.0 0.0 0.00 0.02 0.02 87 1030.3
20180121211359 52 202 0.0 0.0 0.00 0.02 0.02 87 1030.3
20180121210859 52 202 0.0 0.0 0.00 0.02 0.02 86 1030.3
20180121210359 52 202 0.0 0.0 0.00 0.02 0.02 86 1030.3
20180121204859 53 202 0.0 0.0 0.00 0.02 0.02 84 1030.2
20180121204400 54 202 0.0 0.0 0.00 0.02 0.02 85 1030.1
20180121203859 54 202 0.0 0.0 0.00 0.02 0.02 85 1030.2
20180121203359 54 202 0.0 0.0 0.00 0.02 0.02 84 1030.2
20180121201859 54 202 0.0 0.0 0.00 0.02 0.02 82 1030.4
20180121201400 54 202 0.0 0.0 0.00 0.02 0.02 82 1030.3
20180121200859 54 202 0.0 0.0 0.00 0.02 0.02 82 1030.3
20180121200359 55 202 0.0 0.0 0.00 0.02 0.02 81 1030.3
20180121194859 55 202 0.0 0.0 0.00 0.02 0.02 81 1030.3
20180121194359 55 202 0.0 0.0 0.00 0.02 0.02 81 1030.3
20180121193859 55 202 0.0 0.0 0.00 0.02 0.02 81 1030.3
20180121193359 55 202 0.0 0.0 0.00 0.02 0.02 80 1030.3
20180121191859 56 207 0.0 0.0 0.00 0.02 0.02 80 1030.1
20180121191359 56 207 0.0 0.0 0.00 0.02 0.02 80 1030.1
20180121190859 56 205 0.0 0.0 0.00 0.02 0.02 80 1030.1
20180121190359 56 206 0.0 3.0 0.00 0.02 0.02 80 1030.0
20180121184859 56 196 0.0 0.0 0.00 0.02 0.02 81 1029.9
20180121184359 56 196 0.0 0.0 0.00 0.02 0.02 81 1029.8
20180121183859 56 196 0.0 0.0 0.00 0.02 0.02 81 1029.8
20180121183359 56 196 0.0 1.0 0.00 0.02 0.02 81 1029.8
20180121181859 56 188 0.0 0.0 0.00 0.02 0.02 82 1029.7
20180121181359 57 188 0.0 0.0 0.00 0.02 0.02 81 1029.6
20180121180859 57 188 0.0 1.0 0.00 0.02 0.02 81 1029.5
20180121180359 57 175 0.0 3.0 0.00 0.02 0.02 81 1029.4
20180121174859 58 192 2.0 6.0 0.00 0.02 0.02 80 1029.3
20180121174400 58 199 0.0 3.0 0.00 0.02 0.02 79 1029.3
20180121173859 58 180 0.0 0.0 0.00 0.02 0.02 78 1029.2
20180121173359 59 171 0.0 0.0 0.00 0.02 0.02 78 1029.2
20180121171859 59 178 0.0 0.0 0.00 0.02 0.02 76 1029.0
20180121171359 60 178 0.0 0.0 0.00 0.02 0.02 75 1029.0
20180121170859 60 179 0.0 0.0 0.00 0.02 0.02 73 1029.0
20180121170359 61 189 0.0 0.0 0.00 0.02 0.02 73 1029.0
20180121164859 61 190 0.0 3.0 0.00 0.02 0.02 71 1029.0
20180121164359 61 195 0.0 1.0 0.00 0.02 0.02 71 1029.0
20180121163859 61 184 2.0 5.0 0.00 0.02 0.02 71 1029.1
20180121163359 62 174 1.0 5.0 0.00 0.02 0.02 70 1029.1
20180121161859 61 194 3.0 6.0 0.00 0.02 0.02 71 1029.1
20180121161359 61 185 3.0 6.0 0.00 0.02 0.02 71 1029.1
20180121160859 62 193 1.0 5.0 0.00 0.02 0.02 71 1029.0
20180121160359 62 185 2.0 7.0 0.00 0.02 0.02 71 1029.1
20180121154859 63 212 2.0 5.0 0.00 0.02 0.02 67 1029.1
20180121154359 63 178 2.0 7.0 0.00 0.02 0.02 66 1029.1
20180121153859 63 231 2.0 6.0 0.00 0.02 0.02 66 1029.1
20180121153359 63 184 1.0 7.0 0.00 0.02 0.02 66 1029.1
20180121151859 63 171 3.0 5.0 0.00 0.02 0.02 64 1029.0
20180121151359 63 203 2.0 3.0 0.00 0.02 0.02 64 1029.1
20180121150859 63 198 2.0 7.0 0.00 0.02 0.02 63 1029.2
20180121150359 64 214 1.0 6.0 0.00 0.02 0.02 61 1029.2
20180121144859 64 263 1.0 6.0 0.00 0.02 0.02 58 1029.3
20180121144400 64 274 0.0 3.0 0.00 0.02 0.02 58 1029.3
20180121143859 64 325 0.0 0.0 0.00 0.02 0.02 59 1029.4
20180121143359 63 301 0.0 7.0 0.00 0.02 0.02 59 1029.4
20180121141859 63 210 0.0 0.0 0.00 0.02 0.02 59 1029.5
20180121141359 63 209 0.0 0.0 0.00 0.02 0.02 60 1029.5
20180121140859 62 209 0.0 3.0 0.00 0.02 0.02 61 1029.6
20180121140359 62 119 0.0 3.0 0.00 0.02 0.02 61 1029.7
20180121134859 61 119 1.0 3.0 0.00 0.02 0.02 61 1029.9
20180121134359 62 71 0.0 0.0 0.00 0.02 0.02 61 1029.9
20180121133359 61 17 0.0 1.0 0.00 0.02 0.02 60 1030.1
20180121131859 61 334 0.0 0.0 0.00 0.02 0.02 62 1030.4
20180121131359 60 334 0.0 0.0 0.00 0.02 0.02 63 1030.4
20180121130901 60 334 0.0 0.0 0.00 0.02 0.02 63 1030.5
20180121130359 59 101 0.0 0.0 0.00 0.02 0.02 65 1030.6
20180121124859 58 101 0.0 0.0 0.00 0.02 0.02 67 1031.0
20180121124359 58 101 0.0 0.0 0.00 0.02 0.02 66 1031.1
20180121123859 58 103 0.0 0.0 0.00 0.02 0.02 67 1031.2
20180121123359 58 123 0.0 2.0 0.00 0.02 0.02 68 1031.2
20180121121859 57 149 0.0 1.0 0.00 0.02 0.02 71 1031.5
20180121121359 56 149 0.0 0.0 0.00 0.02 0.02 72 1031.7
20180121120859 56 149 0.0 0.0 0.00 0.02 0.02 73 1031.8
20180121120359 56 159 0.0 0.0 0.00 0.02 0.02 75 1031.8
20180121114859 55 129 0.0 0.0 0.00 0.02 0.02 76 1032.1
20180121114400 54 128 0.0 0.0 0.00 0.02 0.02 77 1032.2
20180121113359 54 126 2.0 3.0 0.00 0.02 0.02 76 1032.3
20180121111859 53 355 0.0 0.0 0.00 0.02 0.02 79 1032.4
20180121111359 52 355 0.0 0.0 0.00 0.02 0.02 81 1032.4
20180121110859 52 355 0.0 0.0 0.00 0.02 0.02 82 1032.3
20180121104859 49 355 0.0 0.0 0.00 0.02 0.02 88 1032.5
20180121104400 48 355 0.0 0.0 0.00 0.02 0.02 89 1032.5
20180121103859 48 355 0.0 0.0 0.00 0.02 0.02 89 1032.5
20180121103359 48 351 0.0 1.0 0.00 0.02 0.02 90 1032.6
20180121101859 47 13 0.0 3.0 0.00 0.02 0.02 91 1032.5
20180121100900 46 32 2.0 3.0 0.00 0.02 0.02 92 1032.4
20180121100359 46 355 0.0 5.0 0.00 0.02 0.02 93 1032.4
20180121094859 45 342 1.0 5.0 0.00 0.02 0.02 94 1032.3
20180121094359 44 345 3.0 5.0 0.00 0.02 0.02 94 1032.2
20180121093859 44 7 3.0 3.0 0.00 0.02 0.02 94 1032.2
20180121093400 44 346 0.0 3.0 0.00 0.02 0.02 95 1032.1
20180121091900 43 336 0.0 3.0 0.00 0.02 0.02 95 1032.0
20180121091359 43 335 0.0 0.0 0.00 0.02 0.02 95 1032.0
20180121090900 42 335 0.0 0.0 0.00 0.02 0.02 95 1032.0
20180121090359 42 335 0.0 0.0 0.00 0.02 0.02 95 1032.0
20180121084859 41 340 0.0 3.0 0.00 0.02 0.02 95 1031.8
20180121084400 41 350 2.0 3.0 0.00 0.02 0.02 95 1031.8
20180121083359 41 347 2.0 3.0 0.00 0.02 0.02 95 1031.7
20180121081900 41 325 0.0 0.0 0.01 0.02 0.02 95 1031.4
20180121080859 41 325 1.0 2.0 0.01 0.02 0.02 95 1031.2
20180121080400 41 325 0.0 2.0 0.01 0.02 0.02 95 1031.2
20180121074859 41 324 1.0 3.0 0.01 0.02 0.02 95 1031.0
20180121074359 41 323 1.0 3.0 0.01 0.02 0.02 95 1031.0
20180121073859 41 323 1.0 3.0 0.01 0.02 0.02 95 1030.9
20180121071900 41 302 0.0 2.0 0.00 0.01 0.01 95 1030.8
20180121071359 41 290 0.0 1.0 0.00 0.01 0.01 95 1030.8
20180121070859 41 278 0.0 0.0 0.00 0.01 0.01 95 1030.8
20180121070400 41 274 0.0 0.0 0.00 0.01 0.01 95 1030.8
20180121064900 41 274 0.0 0.0 0.00 0.01 0.01 95 1030.8
20180121064400 41 274 0.0 0.0 0.00 0.01 0.01 95 1030.6
20180121063859 41 274 0.0 0.0 0.00 0.01 0.01 95 1030.7